FW2442 Weather Reports


Display with metric or nautical units.
time (UTC)temp
F
wind
direction
speed
MPH
gust
MPH
rain 1hr
in
rain 24hr
in
rain mn
in
humidity
%
barometer
mb
20260505024523 55 0.0 0.0 0.00 0.00 0.00 60 1015.3
20260505023520 55 0.0 0.0 0.00 0.00 0.00 60 1015.3
20260505022523 55 0.0 0.0 0.00 0.00 0.00 59 1015.4
20260505021521 56 0.0 0.0 0.00 0.00 0.00 59 1015.4
20260505020521 56 0.0 0.0 0.00 0.00 0.00 59 1015.3
20260505015520 55 0.0 0.0 0.00 0.00 0.00 59 1015.3
20260505014541 55 0.0 0.0 0.00 0.00 0.00 59 1015.3
20260505013520 55 0.0 0.0 0.00 0.00 0.00 59 1015.3
20260505012522 56 0.0 0.0 0.00 0.00 0.00 59 1015.2
20260505011522 55 0.0 0.0 0.00 0.00 0.00 59 1015.2
20260505010522 55 0.0 0.0 0.00 0.00 0.00 58 1015.3
20260505005522 56 0.0 0.0 0.00 0.00 0.00 58 1015.2
20260505004521 56 0.0 0.0 0.00 0.00 0.00 57 1015.2
20260505003521 57 0.0 0.0 0.00 0.00 0.00 57 1015.2
20260505002521 57 119 0.0 1.0 0.00 0.00 0.00 57 1015.3
20260505001521 57 0.0 0.0 0.00 0.00 0.00 57 1015.3
20260505000521 57 0.0 0.0 0.00 0.00 0.00 56 1015.4
20260504235542 57 0.0 0.0 0.00 0.00 0.00 56 1015.5
20260504234521 57 0.0 0.0 0.00 0.00 0.00 56 1015.4
20260504233541 58 0.0 0.0 0.00 0.00 0.00 55 1015.5
20260504232522 58 0.0 0.0 0.00 0.00 0.00 55 1015.5
20260504231523 58 0.0 0.0 0.00 0.00 0.00 56 1015.5
20260504230520 58 0.0 0.0 0.00 0.00 0.00 55 1015.5
20260504225520 58 0.0 0.0 0.00 0.00 0.00 55 1015.6
20260504224521 59 0.0 0.0 0.00 0.00 0.00 54 1015.6
20260504223541 59 0.0 0.0 0.00 0.00 0.00 53 1015.5
20260504222522 60 0.0 0.0 0.00 0.00 0.00 53 1015.6
20260504221521 60 0.0 0.0 0.00 0.00 0.00 54 1015.6
20260504220521 60 0.0 0.0 0.00 0.00 0.00 53 1015.5
20260504215521 60 0.0 0.0 0.00 0.00 0.00 54 1015.6
20260504214521 60 0.0 0.0 0.00 0.00 0.00 53 1015.6
20260504213541 61 0.0 0.0 0.00 0.00 0.00 53 1015.5
20260504212605 61 0.0 0.0 0.00 0.00 0.00 53 1015.5
20260504211520 62 0.0 0.0 0.00 0.00 0.00 51 1015.5
20260504210520 62 0.0 0.0 0.00 0.00 0.00 50 1015.4
20260504205522 63 0.0 0.0 0.00 0.00 0.00 49 1015.4
20260504204521 63 0.0 0.0 0.00 0.00 0.00 49 1015.4
20260504203519 63 0.0 0.0 0.00 0.00 0.00 50 1015.4
20260504202520 63 0.0 0.0 0.00 0.00 0.00 51 1015.4
20260504201522 64 0.0 0.0 0.00 0.00 0.00 49 1015.4
20260504200530 64 0.0 0.0 0.00 0.00 0.00 48 1015.4
20260504195522 65 0.0 0.0 0.00 0.00 0.00 48 1015.3
20260504194548 65 0.0 0.0 0.00 0.00 0.00 48 1015.2
20260504193519 66 0.0 0.0 0.00 0.00 0.00 47 1015.2
20260504192519 66 0.0 0.0 0.00 0.00 0.00 47 1015.2
20260504191519 67 0.0 0.0 0.00 0.00 0.00 46 1015.1
20260504190518 67 0.0 0.0 0.00 0.00 0.00 46 1015.0
20260504185519 67 0.0 0.0 0.00 0.00 0.00 46 1015.0
20260504184518 67 0.0 0.0 0.00 0.00 0.00 46 1014.9
20260504183518 67 0.0 0.0 0.00 0.00 0.00 47 1014.9
20260504182517 67 0.0 0.0 0.00 0.00 0.00 47 1014.8
20260504181517 68 0.0 0.0 0.00 0.00 0.00 47 1014.7
20260504180516 69 0.0 0.0 0.00 0.00 0.00 45 1014.6
20260504175517 70 0.0 0.0 0.00 0.00 0.00 44 1014.4
20260504174537 70 0.0 0.0 0.00 0.00 0.00 43 1014.3
20260504173516 70 0.0 0.0 0.00 0.00 0.00 44 1014.2
20260504172518 70 0.0 0.0 0.00 0.00 0.00 44 1014.2
20260504171521 71 95 0.0 2.0 0.00 0.00 0.00 44 1014.3
20260504170523 72 88 0.0 2.0 0.00 0.00 0.00 43 1014.1
20260504150522 77 67 1.0 3.0 0.00 0.00 0.00 36 1013.9
20260504140522 78 59 3.0 6.0 0.00 0.00 0.00 36 1014.2
20260504130521 78 51 3.0 6.0 0.00 0.00 0.00 34 1014.5
20260504110522 76 58 1.0 2.0 0.00 0.00 0.00 40 1015.6
20260504100530 73 46 1.0 2.0 0.00 0.00 0.00 43 1016.2
20260504081525 65 0.0 0.0 0.00 0.00 0.00 58 1016.6
20260504080545 64 336 0.0 1.0 0.00 0.00 0.00 60 1016.6
20260504050525 52 0.0 0.0 0.00 0.00 0.00 66 1017.1
20260504045526 51 0.0 0.0 0.00 0.00 0.00 67 1017.0
20260504044525 51 0.0 0.0 0.00 0.00 0.00 66 1017.1
20260504043524 51 0.0 0.0 0.00 0.00 0.00 66 1017.1
20260504042524 51 0.0 0.0 0.00 0.00 0.00 66 1017.0
20260504041545 50 0.0 0.0 0.00 0.00 0.00 66 1016.9
20260504040525 50 0.0 0.0 0.00 0.00 0.00 64 1016.8
20260504035525 50 0.0 0.0 0.00 0.00 0.00 63 1016.8
20260504034523 50 0.0 0.0 0.00 0.00 0.00 62 1016.9
20260504033527 50 0.0 0.0 0.00 0.00 0.00 61 1016.9
20260504032526 49 0.0 0.0 0.00 0.00 0.00 62 1017.0
20260504031525 49 0.0 0.0 0.00 0.00 0.00 61 1017.0
20260504030530 49 0.0 0.0 0.00 0.00 0.00 60 1017.1
20260504025527 50 0.0 0.0 0.00 0.00 0.00 60 1017.1